Regional Weather Roundup
Issued by NWS Newport/Morehead, NC

Current Version | Previous Version | Graphics & Text | Print | Product List | Glossary Off
Versions: 1 2 3 4 5 6 7 8 9 10 11 12 13 14 15 16 17 18 19 20 21 22 23 24 25 26 27 28 29 30 31 32 33 34 35 36 37 38 39 40 41 42 43 44 45 46 47 48 49 50

000
ASUS42 KMHX 060613
RWRMHX
WEATHER ROUNDUP FOR EASTERN NORTH CAROLINA
NATIONAL WEATHER SERVICE NEWPORT/MOREHEAD CITY NC
100 AM EST TUE DEC 06 2016

NOTE: "FAIR" INDICATES FEW OR NO CLOUDS BELOW 12,000 FEET
WITH NO SIGNIFICANT WEATHER AND/OR OBSTRUCTIONS TO VISIBILITY

NCZ015>017-031-032-045>047-102-103-060700-
NORTH COAST

CITY           SKY/WX    TMP DP  RH WIND       PRES   REMARKS
EDENTON        CLOUDY    48  43  83 CALM      30.07F
ELIZABETH CITY CLOUDY    48  43  82 N10       30.06F
KITTY HAWK     CLOUDY    52  47  84 NE5       30.06F
MANTEO         CLOUDY    52  46  79 NE9       30.07F

$$

NCZ045>047-081-094-103-104-060700-
CENTRAL COAST

CITY           SKY/WX    TMP DP  RH WIND       PRES   REMARKS
FRISCO         CLOUDY    53  48  83 NE10G17   30.02F

$$

NCZ095-097-098-100-101-060700-
SOUTHERN COAST

CITY           SKY/WX    TMP DP  RH WIND       PRES   REMARKS
BEAUFORT       LGT RAIN  50  48  93 VRB6      30.04R
CEDAR ISLAND   NOT AVBL
JACKSONVILLE   CLOUDY    49  47  93 N9        30.04F
PINEY ISLAND   CLOUDY   N/A N/A N/A N7        30.05S
WILMINGTON     HVY RAIN  48  47  96 NE9       30.01F FOG


$$

NCZ011>013-027>030-043-044-078>080-089-090>093-098-060700-
COASTAL PLAIN

CITY           SKY/WX    TMP DP  RH WIND       PRES   REMARKS
AHOSKIE          N/A     45  43  92 CALM      30.08F
CLINTON        LGT RAIN  50  48  93 CALM      30.07S
ELIZABETHTOWN  RAIN      50  50 100 N3        30.04S
GOLDSBORO      LGT RAIN  49  48  95 CALM      30.06R
GREENVILLE     CLOUDY    48  43  81 NE5       30.08S
HAVELOCK       CLOUDY    50  46  86 NE9       30.06R
KENANSVILLE    LGT RAIN  48  45  87 E3        30.07R
KINSTON        LGT RAIN  49  43  79 E5        30.08R
NEW BERN       LGT RAIN  49  43  80 NE6       30.06F
RICHLANDS      LGT RAIN  48  46  93 N6        30.05F
ROCKY MOUNT    LGT RAIN  48  45  89 CALM      30.09R
WASHINGTON     CLOUDY    47  42  82 E3        30.06F
WHITEVILLE     NOT AVBL

$$

AMZ130-135-150-152-154-156-158-170-250-252-270-ANZ085-086-088-633-658-670-060700-
MARINE OBSERVATIONS

STATION/POSITION TIME  TEMP    WIND        PRES    WAVE   SWELL
                       AIR SEA DIR/SP/G            HT/PER HT/PER
                 (UTC) (F)     (DEG/KT/KT) (MB)    (FT/S) (FT/S)
CHESAPEAKE LIGHT NOT AVBL
64 E VA BEACH    0550   54 60   50/ 14/ 16 1018.0    5/ 9   3/ 9
DUCK             0530   53 54   40/ 13/ 15 1018.1
2 E DUCK         NOT AVBL
OREGON INLET     0530   53 56   30/ 10/ 14 1017.7
13E OREGON INLT  NOT AVBL
HATTERAS CG      0530   53 59   20/ 11/ 15 1016.4
DIAMOND BUOY     0550   59 76   30/ 16/ 19 1015.9    5/ 8   3/ 8
CAPE LOOKOUT     0600   51      20/ 12/ 15 1016.7
BEAUFORT LAB     0530   50 56   20/  9/ 12 1015.8
30 SE NEW RVR IN 0508   53 70   60/ 17/ 23 1015.1
30 SE NEW RVR IN NOT AVBL
27 SE WRIGHTSVLE 0508   60 68   80/ 17/ 25 1015.0
5 SE WRIGHTSVLE  0508   51 62   50/ 14/ 25 1015.8
225 S CAPE HAT   0550   74 74  210/ 17/ 21 1014.2    5/ 6   2/11
41 SE CHARLESTON 0550   71 74   60/ 16/ 19 1010.5    4/ 5

$$




USA.gov is the U.S. government's official web portal to all federal, state and local government web resources and services.